Ft Pierce, FL

1:28 PM EST on December 17, 2017 (GMT -0500)
Saint Lucie County International

Weather History for KFPR - December, 2012

Change the Weather History Date:

Monday, December 10, 2012

  Actual Average Record
Temperature  
Mean Temperature 75 °F 66 °F  
Max Temperature 84 °F 75 °F 87 °F (2012)
Min Temperature 66 °F 57 °F 32 °F (1917)
Degree Days  
Heating Degree Days 0 3  
Month to date heating degree days 21  
Since 1 July heating degree days 47  
Cooling Degree Days 10 4  
Month to date cooling degree days 40  
Year to date cooling degree days 3312  
Growing Degree Days 25 (Base 50)    
Moisture  
Dew Point 70 °F    
Average Humidity 88    
Maximum Humidity 100    
Minimum Humidity 61    
Precipitation  
Precipitation 0.03 in 0.07 in 2.10 in (1969)
Month to date precipitation 0.70  
Year to date precipitation 52.43  
Sea Level Pressure  
Sea Level Pressure 29.97 in    
Wind  
Wind Speed 3 mph (SSW)    
Max Wind Speed 13 mph    
Max Gust Speed 22 mph    
Visibility 7 miles    
Events Fog , Rain , Thunderstorm    
T = Trace of Precipitation, MM = Missing Value Source: NWS Daily Summary

Daily Weather History Graph

Daily Weather History Graph

Search for Another Location

Airport or City:

Trip Planner

Search our weather history database for the weather conditions in past years. The results will help you decide how hot, cold, wet, or windy it might be!

Date:

Astronomy

Dec. 10, 2012 Rise Set
Actual Time 7:01 AM EST 5:27 PM EST
Civil Twilight 6:35 AM EST 5:53 PM EST
Nautical Twilight 6:06 AM EST 6:22 PM EST
Astronomical Twilight 5:38 AM EST 6:50 PM EST
Moon 3:52 AM EST (12/10) 3:07 PM EST (12/10)
Length of Visible Light 11h 17m
Length of Day
10h 26m
Waning Crescent, 10% of the Moon is Illuminated
Dec 10
Waning Crescent
Dec 13
New
Dec 20
First Quarter
Dec 28
Full
Jan 4
Last Quarter

Hourly Weather History & Observations

Time (EST) Temp. Heat Index Dew Point Humidity Pressure Visibility Wind Dir Wind Speed Gust Speed Precip Events Conditions
12:53 AM 69.1 °F - 66.9 °F 93% 30.02 in 10.0 mi SSE 3.5 mph - N/A   Clear
1:53 AM 69.1 °F - 66.9 °F 93% 30.01 in 9.0 mi Calm Calm - N/A   Clear
2:42 AM 68.0 °F - 66.2 °F 94% 30.00 in 1.8 mi Calm Calm - N/A   Clear
2:53 AM 66.0 °F - 64.9 °F 96% 30.00 in 0.5 mi Calm Calm - N/A Fog Fog
3:05 AM 66.2 °F - 64.4 °F 94% 29.99 in 1.0 mi Calm Calm - N/A   Partly Cloudy
3:09 AM 66.2 °F - 64.4 °F 94% 29.99 in 3.0 mi Calm Calm - N/A   Partly Cloudy
3:18 AM 66.2 °F - 64.4 °F 94% 29.99 in 2.5 mi Calm Calm - N/A   Scattered Clouds
3:25 AM 66.2 °F - 66.2 °F 100% 29.99 in 10.0 mi Calm Calm - N/A   Scattered Clouds
3:53 AM 66.0 °F - 64.9 °F 96% 29.99 in 8.0 mi Calm Calm - N/A   Partly Cloudy
4:00 AM 66.2 °F - 64.4 °F 94% 29.98 in 6.0 mi Calm Calm - N/A   Scattered Clouds
4:24 AM 66.2 °F - 64.4 °F 94% 29.99 in 9.0 mi Calm Calm - N/A   Mostly Cloudy
4:53 AM 68.0 °F - 66.0 °F 93% 29.99 in 9.0 mi Calm Calm - N/A   Overcast
5:36 AM 69.8 °F - 66.2 °F 88% 29.99 in 8.0 mi Calm Calm - N/A   Overcast
5:51 AM 69.8 °F - 68.0 °F 94% 29.99 in 1.8 mi Calm Calm - N/A   Overcast
5:53 AM 70.0 °F - 68.0 °F 93% 29.99 in 1.0 mi Calm Calm - 0.01 in   Overcast
5:57 AM 69.8 °F - 69.8 °F 100% 29.99 in 0.5 mi Calm Calm - N/A Fog Fog
6:08 AM 69.8 °F - 69.8 °F 100% 29.98 in 0.2 mi Calm Calm - N/A Fog Fog
6:53 AM 71.1 °F - 70.0 °F 96% 29.99 in 0.2 mi SSW 4.6 mph - N/A Fog Fog
7:53 AM 72.0 °F - 71.1 °F 97% 30.01 in 0.2 mi SSW 4.6 mph - N/A Fog Fog
8:36 AM 73.4 °F - 71.6 °F 94% 30.01 in 0.8 mi SSW 4.6 mph - N/A   Overcast
8:45 AM 73.4 °F - 73.4 °F 100% 30.01 in 1.2 mi South 4.6 mph - N/A   Overcast
8:53 AM 73.9 °F - 73.0 °F 97% 30.01 in 2.0 mi South 5.8 mph - N/A   Overcast
9:01 AM 73.4 °F - 73.4 °F 100% 30.01 in 5.0 mi South 4.6 mph - N/A   Overcast
9:21 AM 75.2 °F - 73.4 °F 94% 30.01 in 9.0 mi South 6.9 mph - N/A   Mostly Cloudy
9:44 AM 77.0 °F - 73.4 °F 89% 30.01 in 10.0 mi SW 6.9 mph - N/A   Mostly Cloudy
9:51 AM 77.0 °F - 73.4 °F 89% 30.02 in 7.0 mi SW 6.9 mph - N/A   Overcast
9:53 AM 77.0 °F - 73.0 °F 88% 30.01 in 7.0 mi SW 5.8 mph - N/A   Overcast
10:28 AM 80.6 °F 85.4 °F 73.4 °F 79% 30.01 in 10.0 mi SSW 9.2 mph 17.3 mph N/A   Mostly Cloudy
10:53 AM 79.0 °F - 73.0 °F 82% 30.00 in 10.0 mi SSW 6.9 mph - N/A   Mostly Cloudy
11:53 AM 84.9 °F 91.4 °F 73.0 °F 67% 29.97 in 10.0 mi SSW 10.4 mph - N/A   Overcast
12:53 PM 84.0 °F 89.0 °F 71.1 °F 65% 29.94 in 10.0 mi South 10.4 mph - N/A   Mostly Cloudy
1:00 PM 84.2 °F 89.6 °F 71.6 °F 66% 29.94 in 10.0 mi South 11.5 mph - N/A   Mostly Cloudy
1:53 PM 84.9 °F 90.7 °F 72.0 °F 65% 29.92 in 10.0 mi SSW 8.1 mph - N/A   Scattered Clouds
2:53 PM 84.9 °F 89.4 °F 70.0 °F 61% 29.90 in 10.0 mi South 11.5 mph - N/A   Mostly Cloudy
3:53 PM 82.0 °F 87.4 °F 73.0 °F 74% 29.88 in 10.0 mi SSE 12.7 mph - N/A   Mostly Cloudy
4:53 PM 80.1 °F 84.5 °F 73.9 °F 81% 29.89 in 10.0 mi SE 9.2 mph - 0.00 in Thunderstorm Thunderstorm
5:11 PM 78.8 °F - 71.6 °F 78% 29.90 in 10.0 mi WNW 9.2 mph 21.9 mph N/A Thunderstorm Thunderstorm
5:40 PM 77.0 °F - 71.6 °F 83% 29.91 in 10.0 mi Calm Calm - N/A Thunderstorm Thunderstorm
5:53 PM 75.9 °F - 70.0 °F 82% 29.91 in 10.0 mi Calm Calm - N/A   Mostly Cloudy
6:44 PM 78.8 °F - 71.6 °F 78% 29.91 in 10.0 mi SSE 8.1 mph - 0.00 in Rain Light Rain
6:53 PM 79.0 °F - 73.0 °F 82% 29.92 in 10.0 mi SSW 8.1 mph - 0.00 in   Mostly Cloudy
7:53 PM 77.0 °F - 73.0 °F 88% 29.94 in 10.0 mi South 6.9 mph - 0.02 in   Partly Cloudy
8:53 PM 77.0 °F - 73.0 °F 88% 29.94 in 10.0 mi South 8.1 mph - N/A   Mostly Cloudy
9:53 PM 77.0 °F - 73.0 °F 88% 29.95 in 10.0 mi South 6.9 mph - 0.00 in   Clear
10:53 PM 75.9 °F - 73.0 °F 91% 29.95 in 10.0 mi SSW 5.8 mph - N/A   Mostly Cloudy
11:53 PM 75.9 °F - 73.0 °F 91% 29.93 in 10.0 mi SSW 9.2 mph - 0.00 in   Partly Cloudy